Location: Arundel
(45.9679°N, 74.6164°W)
Time: 02:34:29
(UTC-05:00)

Envisat - Visible Passes

Search period start: 21 February 2018 00:00
Search period end: 03 March 2018 00:00
Orbit: 764 x 766 km, 98.2° (Epoch: 20 February)

Date Brightness Start Highest point End Pass type
(mag) Time Alt. Az. Time Alt. Az. Time Alt. Az.
21 Feb 3.1 18:55:45 10° SSE 19:00:40 54° ENE 19:05:38 10° N visible
21 Feb 5.3 20:36:16 10° SW 20:40:01 21° W 20:43:49 10° NW visible
22 Feb 3.9 18:19:58 10° ESE 18:24:11 27° ENE 18:28:26 10° N visible
22 Feb 4.1 19:58:11 10° S 20:03:01 43° W 20:07:51 10° NNW visible
23 Feb 2.9 19:21:07 10° SSE 19:26:12 90° NNE 19:31:20 10° NNW visible
23 Feb 5.9 21:04:02 10° WSW 21:05:56 12° W 21:07:51 10° WNW visible
24 Feb 3.3 18:44:48 10° SE 18:49:35 44° ENE 18:54:24 10° N visible
24 Feb 5.0 20:24:36 10° SSW 20:28:47 26° W 20:33:00 10° NW visible
25 Feb 4.2 18:09:18 10° ESE 18:13:10 22° ENE 18:17:03 10° NNE visible
25 Feb 3.7 19:46:52 10° S 19:51:49 54° W 19:56:49 10° NNW visible
26 Feb 2.9 19:10:02 10° SSE 19:15:04 73° ENE 19:20:10 10° N visible
26 Feb 5.7 20:51:45 10° SW 20:54:39 15° W 20:57:35 10° NW visible
27 Feb 3.6 18:33:56 10° SE 18:38:31 36° ENE 18:43:08 10° N visible
27 Feb 4.7 20:13:04 10° SSW 20:17:33 32° W 20:22:05 10° NNW visible
28 Feb 3.3 19:35:37 10° S 19:40:40 67° WSW 19:45:45 10° NNW visible
01 Mar 3.0 18:59:00 10° SSE 19:03:58 59° ENE 19:08:58 10° N visible
01 Mar 5.5 20:39:50 10° SW 20:43:23 19° W 20:46:58 10° NW visible
02 Mar 3.8 18:23:08 10° ESE 18:27:28 29° ENE 18:31:49 10° N visible
02 Mar 4.3 20:01:37 10° SSW 20:06:21 39° W 20:11:07 10° NNW visible
